Weather in Razdol'ye

Russia / Saint-Petersburg and Leningrad Oblast     60°34′22″N   30°09′41″E
temp.,
°C
wind,
m/s
gust,
m/s
humid.,
%
clouds,
%
prec.,
mm/h
press.,
hPa
HPBL,
m
17 may, tue
tue1700:00+6nw2992100 0.0 1011283
03:00+5nnw399591 0.1 1011346
06:00+4nw3988100 0.0 1012509
09:00+6nnw4776100 0.0 1013968
12:00+5n4780100 0.1 1014957
15:00+4n4890100 0.1 1016739
18:00+5nne41082100 0.0 1018823
21:00+5n497637 0.0 1019780
18 may, wed
wed1800:00+4nnw3879100 0.0 1019544
03:00+4nw2877100 0.0 1019397
06:00+3wnw2681100 0.0 1020197
09:00+8wnw476556 0.0 1019924
12:00+11w594737 0.0 10171395
15:00+13w6114376 0.0 10151984
18:00+11w5956100 0.0 1015599
21:00+9w2673100 0.0 1014160
19 may, thu
thu1900:00+7wnw237791 0.0 101554
03:00+6nne26776 0.0 1016128
06:00+4n2781100 0.0 1019299
09:00+7nne345799 0.0 1020864
12:00+10nne234076 0.0 10201553
15:00+12nne243382 0.0 10201865
18:00+11ene323858 0.0 1020695
21:00+7sse2254100 0.0 102026
20 may, fri
fri2000:00+6ssw115547 0.0 102014
03:00+4se11605 0.0 102010
06:00+5se135944 0.0 101990
09:00+10se3444100 0.0 1019653
12:00+11ese4543100 0.0 10181185
15:00+11e4547100 0.0 10171021
18:00+9ene4749100 0.0 1016495
21:00+6ene2865100 0.0 1016222
21 may, sat
sat2100:00+5e3117316 0.0 1015336
03:00+3ene2108353 0.0 1015253
06:00+4ene397829 0.0 1015321
09:00+8ene48575 0.0 1015591
12:00+10e46485 0.0 1014977
15:00+12ene55412 0.0 10131357
18:00+11ene46404 0.0 1012947
21:00+6ene311602 0.0 1012326